Location: Unspecified
(0.0000°N, 0.0000°E)
Time: 17:21:43
(UTC+00:00)

STARLINK 1053 - Pass Details

Date: 18 January 2020
Orbit: 549 x 551 km, 53.0° (Epoch: 23 January)

Event Time Altitude Azimuth Distance (km) Brightness Sun altitude
Rises 18:59:50 0° 299° (WNW) 2,715 7.8 -11.6°
Reaches altitude 10° 19:02:35 10° 281° (W) 1,827 7.2 -12.2°
Maximum altitude 19:05:32 19° 235° (SW) 1,364 6.7 -12.9°
Drops below altitude 10° 19:08:29 10° 190° (S) 1,838 6.7 -13.6°
Sets 19:11:17 0° 171° (S) 2,738 7.3 -14.2°
